Regional Weather Roundup
Issued by NWS

Home | Current Version | Previous Version | Graphics & Text | Print | Product List | Glossary Off
Versions: 1 2 3 4 5 6 7 8 9 10 11 12 13 14 15 16 17 18 19 20 21 22 23 24 25 26 27 28 29 30 31 32 33 34 35 36 37 38 39 40 41 42 43 44 45 46 47 48 49 50

000
ASUS43 KMKX 210700
RWRWI

WISCONSIN REGIONAL WEATHER ROUNDUP
NATIONAL WEATHER SERVICE MILWAUKEE/SULLIVAN WI
200 AM CDT MON AUG 21 2017

NOTE: "FAIR" INDICATES FEW OR NO CLOUDS BELOW 12,000 FEET WITH NO
SIGNIFICANT WEATHER AND/OR OBSTRUCTIONS TO VISIBILITY.

WIZ001-002-006>008-014>016-023>028-210800-
NORTHWEST WISCONSIN

CITY           SKY/WX    TMP DP  RH WIND       PRES   REMARKS
SUPERIOR ARPT    N/A     53  53 100 S5        30.03S
ASHLAND        CLEAR     57  55  93 W7        30.04S
HAYWARD        MOCLDY    54  52  93 CALM      30.05F FOG
SIREN          CLEAR     55  54  96 CALM      30.05S
CUMBERLAND     MOCLDY    61  57  88 N5        30.04F
RICE LAKE      CLEAR     63  60  89 N3        30.05F
CHETEK         CLEAR     67  62  85 N5        30.03F
LADYSMITH      CLEAR     65  63  91 N3        30.06S
EAU CLAIRE     NOT AVBL
MENOMONIE      CLEAR     68  65  90 N5        30.01F
NEW RICHMOND   CLEAR     61  61  98 N5        30.03F
OSCEOLA        FOG       59  59 100 CALM      30.05F VSB 1
$$

WIZ003>005-009-010-017-018-210800-
NORTH CENTRAL WISCONSIN

CITY           SKY/WX    TMP DP  RH WIND       PRES   REMARKS
MANITOWISH WTR CLOUDY    61  61 100 CALM      30.06S
ARBOR VITAE    CLOUDY    67  61  81 CALM      30.05S
WOODRUFF       CLOUDY    67  61  81 CALM      30.05S
RHINELANDER    CLEAR     67  66  97 CALM      30.05F
EAGLE RIVER    CLOUDY    65  63  91 CALM      30.06R
LAND O LAKES   CLOUDY    66  59  77 CALM      30.07S
PHILLIPS       CLOUDY    65  65  99 CALM      30.05S
TOMAHAWK         N/A     64  63  95 CALM      30.05S
MEDFORD        PTCLDY    64  63  97 CALM      30.03F FOG
MERRILL        CLEAR     63  63 100 CALM      30.04F
$$

WIZ029-030-035-036-043>047-210800-
CENTRAL WISCONSIN

CITY           SKY/WX    TMP DP  RH WIND       PRES   REMARKS
WAUSAU         CLEAR     68  66  93 S5        30.01F
MOSINEE        CLEAR     64  64 100 S5        30.04F
MARSHFIELD     CLEAR     67  64  90 CALM      30.02F
STEVENS POINT  CLEAR     65  65 100 CALM      30.04S
WAUPACA        CLEAR     69  68  95 W3        30.03R
WAUTOMA        CLEAR     64  63  96 CALM      30.03F
WISC RAPIDS    CLEAR     66  66 100 SW5       30.03F
CAMP DOUGLAS   CLEAR     62  62 100 CALM      30.01F
$$

WIZ011>013-019>022-031-037>040-048>050-210800-
NORTHEAST WISCONSIN

CITY           SKY/WX    TMP DP  RH WIND       PRES   REMARKS
ANTIGO         CLEAR     62  62 100 CALM      30.04F
SHAWANO        PTCLDY    70  66  87 CALM      30.01F
OCONTO         CLOUDY    70  67  89 CALM      30.00F
STURGEON BAY   CLOUDY    72  68  87 W5        30.02S
GREEN BAY      CLOUDY    68  68 100 CALM      30.01F
MANITOWOC      NOT AVBL
APPLETON       PTCLDY    68  64  88 CALM      30.01F
CLINTONVILLE   PTCLDY    68  64  88 CALM      30.02S
OSHKOSH        CLEAR     67  64  90 CALM      30.02F
$$

WIZ032>034-041-042-053>061-210800-
SOUTHWEST WISCONSIN

CITY           SKY/WX    TMP DP  RH WIND       PRES   REMARKS
LA CROSSE      CLEAR     72  68  87 SE7       30.00F
SPARTA         CLEAR     61  61 100 CALM      30.03F
VIROQUA        CLEAR     65  64  96 CALM      30.02F
BOSCOBEL       FOG       60  59  96 CALM      30.02S VSB 1
PRAIRIE DU CHI CLEAR     64  63  94 SE3       30.01F
PLATTEVILLE    CLEAR     63  63 100 CALM      30.03F
$$

WIZ056-057-062-063-064-067-068-210800-
SOUTH CENTRAL WISCONSIN

CITY           SKY/WX    TMP DP  RH WIND       PRES   REMARKS
REEDSBURG      CLEAR     64  64 100 CALM      30.01F
BARABOO/DELLS  CLEAR     64  62  94 CALM      30.02F
LONE ROCK      FOG       63  63 100 E3        30.01F VSB 1/4
MINERAL POINT  CLEAR     66  66 100 CALM      30.03F
MADISON        CLEAR     68  66  93 S3        30.00F
MIDDLETON      CLOUDY    62  62 100 CALM      30.03F VSB 1/4
WATERTOWN      PTCLDY    62  62 100 CALM      30.03F FOG
MONROE         CLEAR     68  64  88 E6        30.03F
JANESVILLE     CLEAR     68  68 100 E5        30.02F
$$

WIZ051-052-058>065-066-070>072-210800-
SOUTHEAST WISCONSIN

CITY           SKY/WX    TMP DP  RH WIND       PRES   REMARKS
MILWAUKEE      MOCLDY    70  66  87 CALM      30.04F
WAUKESHA       CLEAR     64  64 100 S5        30.06F FOG
MILWAUKEE/TIMM CLEAR     64  63  94 S5        30.05F
RACINE         CLOUDY    71  69  93 CALM      30.06S
KENOSHA        CLOUDY    70  67  90 W5        30.05S
FOND DU LAC    CLEAR     65  63  93 S6        30.02F
SHEBOYGAN      CLEAR     65  65 100 S3        30.03F
WEST BEND      CLEAR     63  63 100 CALM      30.04F FOG
JUNEAU         FOG       64  63  98 SE6       30.05F VSB 1/4
$$

LSZ147-162-210800-
LAKE SUPERIOR

STATION/POSITION TIME  TEMP    WIND        PRES    WAVE
                       AIR SEA DIR/SP/G            HT/PER
                 (UTC) (F)     (DEG/KT/KT) (MB)    (FT/S)
W MID LAKE BUOY  0550   63 60  270/  8/ 10 1015.1R   1/ 4
DEVILS ISLAND    0600   64     240/  7/  8 1016.2R
PORT WING        0440          160/  4/  5 1016.3
SAXON HARBOR     0630   61     200/  6/  7 1016.3S
$$

LMZ867-665-643>646-210800-
LAKE MICHIGAN

STATION/POSITION TIME  TEMP    WIND        PRES    WAVE
                       AIR SEA DIR/SP/G            HT/PER
                 (UTC) (F)     (DEG/KT/KT) (MB)    (FT/S)
S GREEN BAY BUOY 0630   72 71  220/  8/ 10 1016.1R
N MID LAKE BUOY  0550   69 67  220/ 12/ 14 1015.9R   3/ 5
NORTHPORT PIER   0640   72     210/  4/  7 1015.6S
KEWAUNEE LAKESHO 0630   72     210/  4/  5 1015.7F
SHEBOYGAN LAKESH 0600   72     260/  5/  6 1016.6F
PORT WASHINGTON  0640   71     290/  4/  5 1017.6F
ATWATER BUOY     0509   72 70   CALM  /  2 1017.5R
MILWAUKEE LAKESH 0630   71     190/  2/  3   N/A
S MID LAKE BUOY  0550   76 72  220/  6/  8 1017.4R   1
KENOSHA   LAKESH 0600   74     160/  3/  4 1017.3
$$

TC  - TEMPERATURE IN CELSIUS
VSB - VISIBILITY IN STATUTE MILES
WCI - WIND CHILL INDEX
HX  - HEAT INDEX





USA.gov is the U.S. government's official web portal to all federal, state and local government web resources and services.